PADU

Unalaska Airport

Airport
ICAO code
PADU
IATA Code
DUT
Summary
ICAO Region
NAM
ICAO Territory
Location

Unalaska Island,

Serving
Unalaska Island
Coordinates
53° 53' 56" N , 166° 32' 41" W
KCC
Airport BS
Bird Strike
Non Avian Wildlife Hazards to Aircraft
Airport WX
Fog
Metar
Observation
PADU 031856Z 24010G18KT 6SM -SN FEW011 SCT032 BKN048 02/M02 A2952 RMK AO2 PK WND 21027/1806 SLP002 P0000 T00221022
Station
Unalaska, Unalaska Airport
Date/Time
2023-02-03 18:56:00
Wind direction
240°
Wind speed
10 kts
Lowest cloud amount
few clouds
Temperature
2.2°C
Dew point
-2.2°C
Humidity
72%
Weather condition
light snow

Description

Regional airport serving Unalaska, Alaska which is located on Unalaska Island and neighboring Amaknak Island in the Aleutian Island chain.

Climatology

Subpolar oceanic climate(Köppen climate classification Cfc) - moderate and fairly uniform temperatures and heavy rainfall. Fog is often present even when it is not raining. Summer weather is around 5 °F (2.8 °C) cooler than Southeast Alaska (Sitka), but the winter temperatures are nearly the same.

Runways

Designator Length Width Surface Rops
12/30 1189 30 ASP Yes/Yes

Airport map

Aerial View

Airport accidents

SKYbrary Partners:

Safety knowledge contributed by: